Regional Weather Roundup
Issued by NWS

Home | Current Version | Previous Version | Text Only | Print | Product List | Glossary Off
Versions: 1 2 3 4 5 6 7 8 9 10 11 12 13 14 15 16 17 18 19 20 21 22 23 24 25 26 27 28 29 30 31 32 33 34 35 36 37 38 39 40 41 42 43 44 45 46 47 48 49 50

000
ASUS43 KFSD 011210
RWRSD

WEATHER ROUNDUP FOR SOUTH DAKOTA
NATIONAL WEATHER SERVICE SIOUX FALLS SD
600 AM CST SUN FEB 01 2015

NOTE: "FAIR" INDICATES FEW OR NO CLOUDS BELOW 12,000 FEET WITH NO
SIGNIFICANT WEATHER AND/OR OBSTRUCTIONS TO VISIBILITY.


SDZ001>005-009-010-012>017-011300-
NORTHWEST AND NORTH CENTRAL SOUTH DAKOTA

CITY           SKY/WX    TMP DP  RH WIND       PRES   REMARKS
BUFFALO          N/A      0  -6  76 N10       30.26R WCI -16
FAITH            N/A     -2  -8  76 N14       30.34R WCI -21
MOBRIDGE       FLURRIES  -3 -10  72 N16       30.38R WCI -24
$$

SDZ012>016-024>037-041>051-057-063-072>074-011300-
SOUTHWEST AND SOUTH CENTRAL SOUTH DAKOTA

CITY           SKY/WX    TMP DP  RH WIND       PRES   REMARKS
RAPID CTY ARPT CLOUDY     5   1  83 N20       30.26R WCI -15
PIERRE         LGT SNOW   1  -5  75 N21       30.34R WCI -21
CUSTER         CLOUDY     9   2  73 N7        30.01R WCI  -2
ELLSWORTH AFB  LGT SNOW   4   0  83 N12       30.26  FOG     WCI -12
PHILIP         FLURRIES   3  -4  72 N16       30.33R WCI -16
PINE RIDGE     CLOUDY     5  -1  76 N13       30.22R HAZE    WCI -12
SPEARFISH      HVY SNOW   1  -2  85 NW8       30.25R WCI -12
WINNER         LGT SNOW   5   0  79 N14       30.27R VSB 1   WCI -12
$$

SDZ004>011-016>023-039-040-011300-
NORTHEAST SOUTH DAKOTA

CITY           SKY/WX    TMP DP  RH WIND       PRES   REMARKS
ABERDEEN       LGT SNOW  -1  -9  68 N25G31    30.37R WCI -25
WATERTOWN      CLOUDY     0  -5  79 N22G31    30.22R WCI -23
SISSETON         N/A     -1  -7  75 N21G28    30.36R WCI -24
$$

SDZ017-020-022-023-036>040-048>070-011300-
SOUTHEAST SOUTH DAKOTA

CITY           SKY/WX    TMP DP  RH WIND       PRES   REMARKS
SIOUX FALLS    LGT SNOW  10   6  84 N22G31    30.10R VSB 3/4 WCI -10
HURON          LGT SNOW   1  -4  79 N24G30    30.30R WCI -22
CHAMBERLAIN    LGT SNOW   2  -3  79 N18G30    30.27R WCI -19
MITCHELL       LGT SNOW   4   0  83 N23G29    30.25R VSB 3/4 WCI -18
YANKTON        CLOUDY   N/A N/A N/A N26       30.12R
$$

ABBREVIATIONS USED IN REMARKS
   TC - TEMPERATURE IN CELSIUS
  WCI - WIND CHILL INDEX
   HX - HEAT INDEX
  VSB - VISIBILITY




USA.gov is the U.S. government's official web portal to all federal, state and local government web resources and services.